Regional Weather Roundup
Issued by NWS

Current Version | Previous Version | Text Only | Print | Product List | Glossary On
Versions: 1 2 3 4 5 6 7 8 9 10 11 12 13 14 15 16 17 18 19 20 21 22 23 24 25 26 27 28 29 30 31 32 33 34 35 36 37 38 39 40 41 42 43 44 45 46 47 48 49 50
000
ASUS43 KMKX 230511
RWRWI

WISCONSIN REGIONAL WEATHER ROUNDUP
NATIONAL WEATHER SERVICE MILWAUKEE/SULLIVAN WI
1200 AM CDT TUE SEP 23 2014

NOTE: "FAIR" INDICATES FEW OR NO CLOUDS BELOW 12,000 FEET WITH NO
SIGNIFICANT WEATHER AND/OR OBSTRUCTIONS TO VISIBILITY.

WIZ001-002-006>008-014>016-023>028-230600-
NORTHWEST WISCONSIN

CITY           SKY/WX    TMP DP  RH WIND       PRES   REMARKS
SUPERIOR ARPT  CLEAR     53  51  92 SW6       30.15S
ASHLAND        CLEAR     55  51  86 SW6       30.16S
HAYWARD        CLEAR     47  45  93 CALM      30.19R
SIREN          CLEAR     51  50  95 CALM      30.18F
CUMBERLAND     CLEAR     46  45  93 CALM      30.20S
RICE LAKE      FOG       49  47  95 CALM      30.21S VSB 3/4
CHETEK         CLEAR     47  47 100 CALM      30.20S
LADYSMITH      CLEAR     49  47  96 CALM      30.22R
EAU CLAIRE     FOG       48  47  96 CALM      30.20S VSB 1/2
MENOMONIE      CLEAR     50  49  96 CALM      30.20S
NEW RICHMOND   CLEAR     50  49  98 CALM      30.19S
OSCEOLA        CLEAR     49  49 100 CALM      30.21S
$$

WIZ003>005-009-010-017-018-230600-
NORTH CENTRAL WISCONSIN

CITY           SKY/WX    TMP DP  RH WIND       PRES   REMARKS
MANITOWISH WTR CLEAR     48  48 100 CALM      30.18S
ARBOR VITAE    CLEAR     49  47  90 CALM      30.19S
WOODRUFF       CLEAR     49  47  90 CALM      30.19S
RHINELANDER    CLEAR     49  48  97 W6        30.20S
EAGLE RIVER    CLEAR     46  46 100 SW5       30.18S
LAND O LAKES   CLEAR     42  42  99 CALM      30.19S
PHILLIPS       CLEAR     45  44  97 CALM      30.20S
TOMAHAWK       CLEAR     44  43  95 CALM      30.21S
MEDFORD        CLEAR     45  44  96 SW3       30.21S
MERRILL        CLEAR     43  43 100 CALM      30.21S
$$

WIZ029-030-035-036-043>047-230600-
CENTRAL WISCONSIN

CITY           SKY/WX    TMP DP  RH WIND       PRES   REMARKS
WAUSAU         CLEAR     50  48  93 CALM      30.20S
MOSINEE        CLEAR     48  48 100 CALM      30.23S
MARSHFIELD     CLEAR     50  47  89 CALM      30.21F
STEVENS POINT  CLEAR     45  44  98 CALM      30.22S
WAUPACA        CLEAR     50  49  95 CALM      30.22S
WAUTOMA        CLEAR     45  44  96 CALM      30.23S
WISC RAPIDS    FOG       48  47  96 CALM      30.23S VSB 1/4
CAMP DOUGLAS   CLEAR     43  43 100 CALM      30.22F FOG
$$

WIZ011>013-019>022-031-037>040-048>050-230600-
NORTHEAST WISCONSIN

CITY           SKY/WX    TMP DP  RH WIND       PRES   REMARKS
ANTIGO         CLEAR     51  48  90 W6        30.21S
SHAWANO        CLEAR     53  49  89 CALM      30.20S
OCONTO         CLEAR     47  47 100 CALM      30.18S
STURGEON BAY   CLEAR     55  48  76 SW6       30.19S
GREEN BAY      CLEAR     49  47  93 S3        30.20S
MANITOWOC      CLEAR     51  49  92 SW3       30.22R
APPLETON       CLEAR     52  48  87 W7        30.22S
CLINTONVILLE   CLEAR     48  46  93 CALM      30.21S
OSHKOSH        CLEAR     54  49  83 SW5       30.22S
$$

WIZ032>034-041-042-053>061-230600-
SOUTHWEST WISCONSIN

CITY           SKY/WX    TMP DP  RH WIND       PRES   REMARKS
LA CROSSE      CLEAR     54  51  90 SE7       30.22R
SPARTA         CLEAR     45  43  93 CALM      30.23F
VIROQUA        CLEAR     54  49  83 SW3       30.23S
BOSCOBEL       FOG       48  46  93 CALM      30.24S VSB 3/4
PRAIRIE DU CHI CLEAR     50  48  93 CALM      30.24S
PLATTEVILLE    CLEAR     53  48  83 SE3       30.25F
$$

WIZ056-057-062-063-064-067-068-230600-
SOUTH CENTRAL WISCONSIN

CITY           SKY/WX    TMP DP  RH WIND       PRES   REMARKS
REEDSBURG      CLEAR     49  48  99 CALM      30.23S
BARABOO/DELLS  CLEAR     50  47  92 CALM      30.23S
LONE ROCK      PTCLDY    50  44  80 CALM      30.24S HAZE
MINERAL POINT  CLEAR     54  46  76 S5        30.24F
MADISON        CLEAR     49  47  93 CALM      30.24S FOG
MIDDLETON      CLEAR     46  46  99 CALM      30.24F
WATERTOWN      CLEAR     47  46  95 CALM      30.23S
MONROE         CLEAR     54  46  76 SW7       30.25S
JANESVILLE     CLEAR     50  45  81 CALM      30.24F
$$

WIZ051-052-058>065-066-070>072-230600-
SOUTHEAST WISCONSIN

CITY           SKY/WX    TMP DP  RH WIND       PRES   REMARKS
MILWAUKEE      CLEAR     56  47  71 CALM      30.25S
WAUKESHA       CLEAR     50  45  81 CALM      30.25S
MILWAUKEE/TIMM CLEAR     50  45  81 CALM      30.25S
RACINE         CLEAR     53  47  79 SW6       30.26S
BURLINGTON     CLEAR     44  44 100 CALM      30.25S FOG
KENOSHA        CLEAR     50  47  89 S5        30.26S
FOND DU LAC    CLEAR     54  49  83 SW8       30.23S
SHEBOYGAN      CLEAR     49  46  90 S3        30.22S
WEST BEND      CLEAR     46  45  93 CALM      30.23S
JUNEAU         CLEAR     51  48  92 CALM      30.25R
$$

LSZ147-162-230600-
LAKE SUPERIOR

STATION/POSITION TIME  TEMP    WIND        PRES    WAVE
                       AIR SEA DIR/SP/G            HT/PER
                 (UTC) (F)     (DEG/KT/KT) (MB)    (FT/S)
W MID LAKE BUOY  0450   52 48  230/ 10/ 12 1019.2R   2/ 5
DEVILS ISLAND    0500   57     240/ 15/ 16 1020.2R
PORT WING        0440   59     190/  6/  8 1020.7R
SAXON HARBOR     0400   59     210/  6/ 11 1021.0R
$$

LMZ867-665-643>646-230600-
LAKE MICHIGAN

STATION/POSITION TIME  TEMP    WIND        PRES    WAVE
                       AIR SEA DIR/SP/G            HT/PER
                 (UTC) (F)     (DEG/KT/KT) (MB)    (FT/S)
CHAMBERS ISLAND  0400   58     200/  5/ 10 1021.7
S GREEN BAY BUOY 0500   59                 1022.9
N MID LAKE BUOY  0450   58 57  230/ 14/ 16 1021.2R   3/ 4
NORTHPORT PIER   0500   60     240/  4/ 10 1021.3S
KEWAUNEE LAKESHO 0400   55     290/  3/  4 1021.4S
SHEBOYGAN LAKESH 0500   57 54  250/  8/  9 1023.6F
PORT WASHINGTON  0400   55     270/  4/  5 1024.0
ATWATER BUOY     0500   58     230/  8/  8 1024.8S
S MID LAKE BUOY  0450   61 62  210/ 14/ 16 1024.5S   2/ 3
KENOSHA   LAKESH 0500   56     240/  7/ 10 1024.0S
$$

TC  - TEMPERATURE IN CELSIUS
VSB - VISIBILITY IN STATUTE MILES
WCI - WIND CHILL INDEX
HX  - HEAT INDEX



USA.gov is the U.S. government's official web portal to all federal, state and local government web resources and services.